Location: site
(53.0000°N, 23.0500°E)
Time: 17:29:21
(UTC+01:00)

SAOCOM 1-A - Pass Details

Date: 26 January 2020
Orbit: 621 x 623 km, 97.9° (Epoch: 25 February)

Event Time Altitude Azimuth Distance (km) Brightness Sun altitude
Exits shadow 18:18:52 - 11° (N) 2,303 ? -20.6°
Reaches altitude 10° 18:19:35 10° 10° (N) 2,006 ? -20.7°
Maximum altitude 18:23:54 65° 289° (WNW) 689 ? -21.4°
Drops below altitude 10° 18:28:12 10° 208° (SSW) 1,990 ? -22.0°
Sets 18:30:23 0° 205° (SSW) 2,891 ? -22.3°
